www.pogodaiklimat.ru

Погода и климат >> Архив погоды >> Россия >> Якутия >> Джарджан


ПОГОДА в Джарджане

  • Прогноз погоды в Джарджане
  • Монитор погоды в Джарджане
  • Климат города

АРХИВ ПОГОДЫ в Джарджане

Время (UTC), дата Ветер
(напр.,м/с)
 
Видим.   Явления Облачность Т
(С)
Тd
(С)
f
(%)
Тe
(С)
Тes
(С)
Комфортность P
(гПа)
Po
(гПа)
Тmin
(С)
Tmax
(С)
R
(мм)
R24
(мм)
S
(см)
09 19.04 Ю 6 50 км {снег} 10/0
[Ac trans Cs]
+1.8 -5.5 58 -4 -3 1000.3 995.5
12 19.04 Ю 3 50 км {снег} 6/0
[Ac trans]
-0.2 -6.4 63 -4 -4 1002.8 998.0 +3.1 0.3
15 19.04 Ю 3 50 км 8/0
[Ac trans]
-2.2 -5.4 79 -7 -7 1004.4 999.6
18 19.04 Ю 2 50 км 3/0
[Ac trans]
-3.6 -8.0 71 -7 -7 1005.5 1000.6
21 19.04 Ю 2 50 км 8/0
[Ci fib]
-5.4 -8.7 78 -10 -9 1006.9 1002.0
00 20.04 Ю 5 50 км 3/0
[Ci fib]
-2.2 -7.3 68 -8 -7 1008.0 1003.2 -5.4 26
03 20.04 Ю 5 50 км 8/8 600 м
[Cu hum]
-1.5 -8.3 60 -7 -7 1009.0 1004.2
06 20.04 Ю 4 50 км ясно -0.8 -9.9 50 -6 -2 1010.4 1005.5
09 20.04 Ю 4 50 км ясно -1.6 -10.8 49 -7 -6 1011.8 1006.9
12 20.04 Ю 2 50 км ясно -4.6 -12.7 53 -8 -8 1013.6 1008.6 -0.5
15 20.04 ЮВ 2 50 км ясно -9.0 -15.1 61 -13 -13 1014.5 1009.4
18 20.04 штиль 0 50 км ясно -11.4 -16.7 65 -12 -12 1015.1 1010.0
21 20.04 штиль 0 50 км ясно -13.1 -16.6 75 -13 -13 1015.5 1010.3
00 21.04 штиль 0 50 км ясно -7.8 -15.1 56 -8 -3 1015.5 1010.4 -13.1 26
03 21.04 ЮЗ 4 50 км ясно -3.6 -10.2 60 -9 -5 1015.1 1010.1
06 21.04 ЮЗ 5 50 км 3/3 600 м
[Cu hum]
-1.6 -3.7 86 -8 -6 1015.0 1010.1
09 21.04 Ю 4 50 км 3/3 600 м
[Cu hum]
-1.4 -5.9 71 -7 -6 1015.4 1010.5
12 21.04 штиль 0 50 км ясно -4.1 -6.1 86 -5 -5 1016.1 1011.1 -1.1
15 21.04 Ю 2 50 км ясно -8.8 -16.7 53 -13 -13 1016.2 1011.1
18 21.04 ЮВ 1 50 км ясно -12.2 -16.5 70 -14 -14 1016.2 1011.1
21 21.04 штиль 0 50 км ясно -10.4 -13.2 80 -11 -10 1015.1 1010.0
00 22.04 ЮВ 4 50 км ясно -3.0 -9.3 62 -9 -6 1013.3 1008.3 -12.2 26
03 22.04 ЮВ 6 50 км 4/0
[Ci fib]
+1.0 -8.2 50 -5 -2 1010.4 1005.5
06 22.04 ЮВ 7 50 км 10/0
[Cs]
+1.4 -6.7 55 -5 -3 1007.1 1002.3
09 22.04 ЮВ 4 20 км слабый снег 10/0
[As op]
-0.2 -2.2 86 -6 -6 1005.1 1000.3
12 22.04 Ю 8 10 км слабый снег {метель} 10/0
[As op]
+0.3 -1.3 89 -7 -7 1003.3 998.5 +1.7 2
15 22.04 Ю 8-13
{16}
50 км {снег, метель} 10/0
[As op]
+1.0 -0.4 90 -6 -6 1002.1 997.3
18 22.04 Ю 9-14
{17}
20 км слабый дождь {снег} 10/0
[As op]
+1.1 +0.3 94 -7 -7 1001.0 996.2
21 22.04 Ю 8-10
{14}
20 км слабый дождь 10/0
[As op]
+1.8 +0.3 90 -5 -5 1000.7 995.9
00 23.04 Ю 6 20 км слабый дождь 10/0
[As op]
+2.0 +0.4 89 -4 -4 999.5 994.8 +1.0 1 23
03 23.04 Ю 8 20 км {дождь} 10/0
[As op]
+2.4 +1.4 93 -5 -4 997.3 992.6
06 23.04 Ю 9-14
{17}
50 км {дождь} 4/0
[Ci fib]
+4.2 -0.3 72 -2 -1 994.8 990.1
09 23.04 Ю 9-14
{17}
50 км 4/0
[Ci fib]
+5.8 -0.8 63 0 +1 993.3 988.6
12 23.04 Ю 9-14
{18}
50 км 10/0
[Ac As]
+4.5 0.0 73 -2 -2 992.7 988.0 +6.4 0.4
15 23.04 Ю 6 20 км слабый дождь 10/0
[As op]
+3.8 +1.2 83 -2 -2 991.6 986.9
18 23.04 Ю 4 20 км слабый дождь 10/0
[As op]
+2.9 +0.5 84 -2 -2 989.6 984.9
21 23.04 Ю 9-12
{18}
50 км {дождь} 10/0
[Ac und]
+2.4 -0.3 82 -5 -5 989.1 984.4
00 24.04 Ю 9-13
{17}
50 км {дождь} 10/0
[Ac und]
-2.1 -6.4 72 -10 -10 992.6 987.8 -2.1 2 13
03 24.04 Ю 8-12
{17}
50 км {снег} 10/0
[Ac und]
-4.8 -6.5 88 -14 -13 996.8 991.9
06 24.04 Ю 9-12
{16}
50 км {снег} 10/0
[Cs]
-5.2 -11.6 61 -14 -14 999.6 994.7
09 24.04 Ю 6 50 км 10/0
[Cs]
-6.0 -13.9 54 -13 -13 1002.5 997.6
12 24.04 Ю 2 50 км 10/0
[Cs]
-7.2 -13.0 63 -11 -11 1005.2 1000.3 -4.8 0.3
15 24.04 штиль 0 50 км ясно -13.2 -16.7 75 -13 -13 1006.6 1001.5
18 24.04 штиль 0 50 км ясно -15.6 -17.5 85 -16 -16 1007.7 1002.6
21 24.04 С 2 50 км 10/0
[Cs]
-11.2 -13.2 85 -16 -15 1010.8 1005.7
00 25.04 С 2 50 км 10/0
[Cs]
-9.7 -12.3 81 -14 -11 1012.6 1007.5 -15.6 13
03 25.04 С 2 50 км 10/0
[Cs]
-7.6 -11.6 73 -12 -6 1014.2 1009.1
06 25.04 С 1 20 км слабый снег 10/0
[Cs]
-5.8 -10.1 72 -8 -2 1015.3 1010.3
09 25.04 С 2 20 км слабый снег 10/0
[Cs]
-5.7 -7.4 88 -10 -8 1016.8 1011.8
12 25.04 штиль 0 50 км {снег} 10/0
[Cs]
-5.7 -6.3 96 -7 -7 1017.3 1012.3 -5.7 0.2
15 25.04 штиль 0 50 км 10/0
[Ci fib]
-10.4 -11.0 95 -11 -11 1017.1 1012.0
18 25.04 штиль 0 50 км 10/0
[Ci fib]
-11.2 -11.8 95 -11 -11 1016.9 1011.8
21 25.04 штиль 0 50 км 10/0
[Ac und]
-9.8 -10.6 94 -10 -10 1016.6 1011.5
00 26.04 Ю 2 50 км 10/0
[Ci fib]
-6.2 -8.9 81 -10 -7 1015.4 1010.4 -11.2 13
03 26.04 Ю 4 50 км 10/0
[Ci fib]
-3.2 -10.0 59 -9 -5 1013.3 1008.3
06 26.04 Ю 5 50 км 10/0
[Cs]
-2.2 -9.4 58 -8 -6 1011.3 1006.4

 

Местоположение метеостанции Джарджан (Якутия, Россия): широта 68.73 долгота 124.00 высота над уровнем моря 39 м.

В архиве по умолчанию представлена погода в Джарджане за последнюю неделю. Архивные данные за месяц целиком и за предыдущие месяцы, начиная с января 2011 года, Вы можете получить, выбрав интересующий диапазон дат из раскрывающегося списка и нажав кнопку "Ввод!".


*Определитесь, кто Вы:
робот инопланетянин человек

Внимание! Время в таблицах - всемирное. Для получения местного времени необходимо прибавить поправку, которая в Джарджане равна 9 ч.

Смотрите также архив погоды в соседних городах и на ближайших метеорологических станциях:

Погода в Жиганске (Якутия, Россия) (219 км)
Погода в Сухане (Якутия, Россия) (231 км)
Погода в Кюсюре (Якутия, Россия) (253 км)
Погода в Батагай-Алыте (Якутия, Россия) (284 км)
Погода в Тюмяти (Якутия, Россия) (355 км)
Погода в Тикси (Якутия, Россия) (367 км)
Погода в Бестяхской Звероферме (Якутия, Россия) (382 км)
Погода в Екюччю (Якутия, Россия) (387 км)
Погода в Верхоянске (Якутия, Россия) (409 км)
Погода на Мысе Быков (Якутия, Россия) (410 км)

Пояснения к столбцам:

Ветер - указаны скорость ветра в м/с - средняя за 10 мин, порывы в срок и между сроками (в фигурных скобках) и направление, откуда дует ветер: С - северный, СВ - северо-восточный, В - восточный, ЮВ - юго-восточный, Ю - южный, ЮЗ - юго-западный, З - западный, СЗ - северо-западный.
Видимость - горизонтальная дальность видимости в метрах или километрах. При видимости от 1 до 10 км при отсутствии осадков обычно наблюдается дымка, при ухудшении видимости до 1 км и менее - туман. В сухую погоду видимость может ухудшаться дымом, пылью или мглою.
Явления - указаны атмосферные явления, наблюдавшиеся в срок или в последний час перед сроком; фигурными скобками обозначены явления, наблюдавшиеся между сроками (за 1-3 часа до срока); квадратными скобками обозначены град или гололедные отложения с указанием их диаметра в мм.
Облачность - указаны через наклонную черту общая и нижняя облачность в баллах и высота нижней границы облаков в метрах; квадратными скобками обозначены формы облаков: Ci - перистые, Cs - перисто-слоистые, Cc - перисто-кучевые, Ac - высококучевые, As - высокослоистые, Sc - слоисто-кучевые, Ns - слоисто-дождевые, Cu - кучевые, Cb - кучево-дождевые. Подробнее классификацию облаков см. в Атласе облаков (PDF).
T - Температура воздуха - температура, измеренная на высоте 2 м над землей.
Td - Температура точки росы - температура, при понижении до которой содержащийся в воздухе водяной пар достигнет насыщения.
f - Относительная влажность воздуха - влажноcть воздуха, измеренная на высоте 2 м над землей.
Te - Эффективная температура - температура, которую ощущает одетый по сезону человек в тени. Характеристика душности погоды. При расчете учитывается влияние влажности воздуха и скорости ветра на теплоощущения человека.
Tes - Эффективная температура на солнце - температура, которую ощущает человек, с поправкой на солнечный нагрев. Характеристика знойности погоды. Зависит от высоты солнца над горизонтом, облачности и скорости ветра. Ночью, в пасмурную погоду, а также при ветре 12 м/с и более поправка равна нулю.
P - Атмосферное давление - приведенное к уровню моря атмосферное давление.
Po - Атмосферное давление - измеренное на уровне метеостанции атмосферное давление.
Tmin - Минимальная температура - минимум температуры воздуха на высоте 2 м над землей.
Tmax - Максимальная температура - максимум температуры воздуха на высоте 2 м над землей.
R - Количество осадков - Количество выпавших осадков за период времени, мм. При наведении курсора мыши на число - период времени, за который выпало указанное количество осадков.
R24 - Количество осадков - Количество выпавших осадков за 24 часа, мм.
S - Снежный покров - Высота снежного покрова, см. При наведении курсора мыши на число - состояние снежного покрова и степень покрытия местности в баллах.